• In Hungary
  • List of Countries
  • For 7 days
  • Water Temperature
  • Satellite Maps
  • Weather Map
  • News
  • Weather Widgets
  • user-avatar
    Login

    Hourly Weather Alushta

    Today, 25 September, Tuesday

    Time Temperature Precipitation Wind Pressure Humidity
    00:00 +18°C° 0 mm 3 mps 732 mmHg 83%
    01:00 +17°C° 0 mm 4 mps 732 mmHg 85%
    02:00 +15°C° 0 mm 5 mps 732 mmHg 88%
    03:00 +14°C° 0 mm 6 mps 732 mmHg 87%
    04:00 +12°C° 0 mm 7 mps 733 mmHg 86%
    05:00 +11°C° 0 mm 7 mps 733 mmHg 85%
    06:00 +10°C° 0.2 mm 7 mps 734 mmHg 85%
    07:00 +10°C° 0.2 mm 7 mps 734 mmHg 86%
    08:00 +9°C° 0 mm 6 mps 735 mmHg 86%
    09:00 +9°C° 0.2 mm 6 mps 736 mmHg 84%
    10:00 +10°C° 0.2 mm 6 mps 736 mmHg 82%
    11:00 +10°C° 0.2 mm 6 mps 737 mmHg 80%
    12:00 +10°C° 0.1 mm 6 mps 737 mmHg 75%
    13:00 +11°C° 0.1 mm 6 mps 737 mmHg 70%
    14:00 +12°C° 0.1 mm 5 mps 738 mmHg 65%
    15:00 +12°C° 0 mm 5 mps 738 mmHg 64%
    16:00 +12°C° 0 mm 5 mps 738 mmHg 62%
    17:00 +12°C° 0 mm 4 mps 738 mmHg 61%
    18:00 +11°C° 0 mm 4 mps 739 mmHg 64%
    19:00 +10°C° 0 mm 4 mps 739 mmHg 67%
    20:00 +8°C° 0 mm 4 mps 740 mmHg 71%
    21:00 +8°C° 0 mm 4 mps 740 mmHg 73%
    22:00 +7°C° 0 mm 4 mps 740 mmHg 75%
    23:00 +7°C° 0 mm 5 mps 741 mmHg 77%

    Tomorrow, 26 September, Wednesday

    Time Temperature Precipitation Wind Pressure Humidity
    00:00 +7°C° 0 mm 5 mps 741 mmHg 78%
    01:00 +6°C° 0 mm 5 mps 741 mmHg 79%
    02:00 +6°C° 0 mm 5 mps 741 mmHg 81%
    03:00 +6°C° 0 mm 5 mps 742 mmHg 83%
    04:00 +5°C° 0 mm 5 mps 742 mmHg 85%
    05:00 +5°C° 0 mm 5 mps 742 mmHg 86%
    06:00 +6°C° 0 mm 5 mps 743 mmHg 80%
    07:00 +7°C° 0 mm 5 mps 743 mmHg 74%
    08:00 +8°C° 0 mm 5 mps 743 mmHg 67%
    09:00 +9°C° 0 mm 5 mps 744 mmHg 60%
    10:00 +10°C° 0 mm 5 mps 744 mmHg 52%
    11:00 +12°C° 0 mm 5 mps 744 mmHg 44%
    12:00 +13°C° 0 mm 5 mps 744 mmHg 43%
    13:00 +13°C° 0 mm 5 mps 744 mmHg 42%
    14:00 +13°C° 0 mm 5 mps 744 mmHg 41%
    15:00 +12°C° 0 mm 5 mps 744 mmHg 44%
    16:00 +12°C° 0 mm 4 mps 744 mmHg 46%
    17:00 +11°C° 0 mm 4 mps 744 mmHg 49%
    18:00 +10°C° 0 mm 4 mps 745 mmHg 52%
    19:00 +8°C° 0 mm 4 mps 745 mmHg 54%
    20:00 +7°C° 0 mm 4 mps 745 mmHg 57%
    21:00 +7°C° 0 mm 4 mps 745 mmHg 58%
    22:00 +6°C° 0 mm 4 mps 745 mmHg 58%
    23:00 +6°C° 0 mm 4 mps 745 mmHg 59%

    Day after tomorrow, 27 September, Thursday

    Time Temperature Precipitation Wind Pressure Humidity
    00:00 +6°C° 0 mm 4 mps 745 mmHg 59%
    01:00 +5°C° 0 mm 3 mps 745 mmHg 60%
    02:00 +5°C° 0 mm 3 mps 745 mmHg 61%
    03:00 +5°C° 0 mm 3 mps 745 mmHg 62%
    04:00 +5°C° 0 mm 3 mps 745 mmHg 64%
    05:00 +4°C° 0 mm 3 mps 744 mmHg 66%
    06:00 +7°C° 0 mm 3 mps 745 mmHg 63%
    07:00 +8°C° 0 mm 3 mps 745 mmHg 60%
    08:00 +10°C° 0 mm 3 mps 745 mmHg 56%
    09:00 +11°C° 0 mm 3 mps 745 mmHg 51%
    10:00 +13°C° 0 mm 2 mps 745 mmHg 45%
    11:00 +15°C° 0 mm 2 mps 745 mmHg 40%
    12:00 +15°C° 0 mm 2 mps 744 mmHg 38%
    13:00 +16°C° 0 mm 2 mps 744 mmHg 36%
    14:00 +16°C° 0 mm 2 mps 744 mmHg 35%
    15:00 +15°C° 0 mm 2 mps 744 mmHg 38%
    16:00 +14°C° 0 mm 2 mps 743 mmHg 42%
    17:00 +13°C° 0 mm 2 mps 743 mmHg 45%
    18:00 +12°C° 0 mm 2 mps 743 mmHg 48%
    19:00 +11°C° 0 mm 1 mps 743 mmHg 51%
    20:00 +10°C° 0 mm 1 mps 743 mmHg 54%
    21:00 +10°C° 0 mm 1 mps 743 mmHg 56%
    22:00 +9°C° 0 mm 1 mps 743 mmHg 57%
    23:00 +9°C° 0 mm 1 mps 743 mmHg 58%

    28 September, Friday

    Time Temperature Precipitation Wind Pressure Humidity
    00:00 +9°C° 0 mm 1 mps 742 mmHg 59%
    01:00 +9°C° 0 mm 1 mps 742 mmHg 59%
    02:00 +9°C° 0 mm 1 mps 742 mmHg 59%
    03:00 +9°C° 0 mm 1 mps 742 mmHg 59%
    04:00 +9°C° 0 mm 1 mps 741 mmHg 58%
    05:00 +10°C° 0 mm 1 mps 741 mmHg 57%
    06:00 +11°C° 0 mm 1 mps 741 mmHg 53%
    07:00 +13°C° 0 mm 1 mps 741 mmHg 49%
    08:00 +15°C° 0 mm 1 mps 741 mmHg 45%
    09:00 +16°C° 0 mm 1 mps 741 mmHg 44%
    10:00 +18°C° 0 mm 1 mps 741 mmHg 43%
    11:00 +19°C° 0 mm 2 mps 741 mmHg 42%
    12:00 +19°C° 0 mm 2 mps 740 mmHg 42%
    13:00 +19°C° 0 mm 2 mps 740 mmHg 43%
    14:00 +20°C° 0 mm 2 mps 739 mmHg 44%
    15:00 +19°C° 0 mm 2 mps 739 mmHg 49%
    16:00 +18°C° 0 mm 2 mps 738 mmHg 55%
    17:00 +17°C° 0 mm 2 mps 738 mmHg 60%
    18:00 +16°C° 0 mm 2 mps 738 mmHg 65%
    19:00 +15°C° 0 mm 2 mps 738 mmHg 69%
    20:00 +14°C° 0 mm 1 mps 738 mmHg 74%
    21:00 +13°C° 0 mm 1 mps 738 mmHg 76%
    22:00 +13°C° 0 mm 1 mps 737 mmHg 79%
    23:00 +13°C° 0 mm 1 mps 737 mmHg 81%

    29 September, Saturday

    Time Temperature Precipitation Wind Pressure Humidity
    00:00 +13°C° 0 mm 1 mps 737 mmHg 82%
    01:00 +13°C° 0 mm 1 mps 737 mmHg 84%
    02:00 +12°C° 0 mm 1 mps 736 mmHg 85%
    03:00 +12°C° 0 mm 1 mps 736 mmHg 86%
    04:00 +12°C° 0 mm 1 mps 736 mmHg 86%
    05:00 +12°C° 0 mm 1 mps 736 mmHg 87%
    06:00 +14°C° 0 mm 1 mps 736 mmHg 80%
    07:00 +15°C° 0 mm 1 mps 736 mmHg 73%
    08:00 +16°C° 0 mm 1 mps 736 mmHg 67%
    09:00 +19°C° 0 mm 1 mps 736 mmHg 62%
    10:00 +20°C° 0 mm 1 mps 736 mmHg 57%
    11:00 +21°C° 0 mm 1 mps 736 mmHg 53%
    12:00 +21°C° 0 mm 1 mps 736 mmHg 53%
    13:00 +21°C° 0 mm 1 mps 736 mmHg 54%
    14:00 +21°C° 0 mm 1 mps 735 mmHg 54%
    15:00 +21°C° 0 mm 1 mps 735 mmHg 58%
    16:00 +20°C° 0 mm 1 mps 735 mmHg 61%
    17:00 +19°C° 0 mm 1 mps 735 mmHg 65%
    18:00 +19°C° 0 mm 1 mps 736 mmHg 67%
    19:00 +18°C° 0 mm 1 mps 736 mmHg 70%
    20:00 +16°C° 0 mm 1 mps 736 mmHg 73%
    21:00 +16°C° 0 mm 1 mps 736 mmHg 75%
    22:00 +15°C° 0 mm 1 mps 736 mmHg 77%
    23:00 +15°C° 0 mm 1 mps 736 mmHg 79%

    30 September, Sunday

    Time Temperature Precipitation Wind Pressure Humidity
    00:00 +14°C° 0 mm 1 mps 736 mmHg 80%
    01:00 +14°C° 0 mm 1 mps 736 mmHg 81%
    02:00 +14°C° 0 mm 2 mps 736 mmHg 81%
    03:00 +13°C° 0 mm 2 mps 736 mmHg 82%
    04:00 +13°C° 0 mm 2 mps 737 mmHg 83%
    05:00 +13°C° 0 mm 2 mps 737 mmHg 83%
    06:00 +14°C° 0 mm 2 mps 737 mmHg 78%
    07:00 +16°C° 0 mm 2 mps 737 mmHg 74%
    08:00 +17°C° 0 mm 2 mps 738 mmHg 69%
    09:00 +18°C° 0 mm 2 mps 738 mmHg 64%
    10:00 +20°C° 0 mm 3 mps 738 mmHg 58%
    11:00 +21°C° 0 mm 3 mps 738 mmHg 53%
    12:00 +21°C° 0 mm 3 mps 738 mmHg 56%
    13:00 +20°C° 0 mm 3 mps 738 mmHg 59%
    14:00 +20°C° 0 mm 3 mps 737 mmHg 61%
    15:00 +19°C° 0 mm 3 mps 737 mmHg 65%
    16:00 +19°C° 0 mm 3 mps 737 mmHg 69%
    17:00 +18°C° 0 mm 3 mps 737 mmHg 72%
    18:00 +17°C° 0 mm 3 mps 737 mmHg 76%
    19:00 +16°C° 0 mm 3 mps 737 mmHg 81%
    20:00 +14°C° 0 mm 3 mps 737 mmHg 85%
    21:00 +14°C° 0 mm 4 mps 737 mmHg 86%
    22:00 +13°C° 0 mm 4 mps 737 mmHg 88%
    23:00 +13°C° 0 mm 4 mps 736 mmHg 90%
    Show more